Location: Hlohovi?ky
(49.8934°N, 13.6739°E)
Time: 05:44:13
(UTC+00:00)

CZ-4C R/B - Pass Details

Date: 19 May 2025
Orbit: 500 x 1483 km, 63.4° (Epoch: 22 June)

Event Time Altitude Azimuth Distance (km) Brightness Sun altitude
Rises 19:28:37 0° 316° (NW) 3,710 8.2 -5.8°
Reaches altitude 10° 19:31:00 10° 313° (NW) 2,890 6.9 -6.1°
Maximum altitude 19:37:57 63° 234° (SW) 1,376 3.4 -6.9°
Drops below altitude 10° 19:46:27 10° 157° (SSE) 3,499 4.8 -7.9°
Enters shadow 19:47:31 - 156° (SSE) 3,848 5.0 -8.0°
